Location: Betpouey
(42.8833°N, 0.0333°E)
Time: 08:26:39
(UTC+00:00)

BREEZE-M DEB (TANK) - Pass Details

Date: 01 December 2020
Orbit: 431 x 13851 km, 45.9° (Epoch: 16 January)

Event Time Altitude Azimuth Distance (km) Brightness Sun altitude
Rises 17:34:01 0° 221° (SW) 4,237 8.0 -12.1°
Reaches altitude 10° 17:38:04 10° 210° (SSW) 2,352 6.3 -12.8°
Maximum altitude 17:41:48 25° 153° (SSE) 1,056 3.7 -13.4°
Enters shadow 17:43:13 18° 111° (ESE) 1,184 3.6 -13.7°
